TimeEST,TemperatureF,Dew PointF,Humidity,Sea Level PressureIn,VisibilityMPH,Wind Direction,Wind SpeedMPH,Gust SpeedMPH,PrecipitationIn,Events,Conditions,WindDirDegrees,DateUTC
12:14 AM,28.8,27.5,95,29.71,5.0,Calm,Calm,-,N/A,,Mostly Cloudy,0,2013-12-29 05:14:00
12:35 AM,30.2,28.9,95,29.70,7.0,NE,3.5,-,N/A,,Overcast,40,2013-12-29 05:35:00
12:55 AM,30.2,28.8,94,29.69,7.0,Calm,Calm,-,N/A,,Mostly Cloudy,0,2013-12-29 05:55:00
1:14 AM,29.7,28.2,94,29.69,7.0,NE,4.6,-,N/A,,Mostly Cloudy,40,2013-12-29 06:14:00
1:35 AM,30.0,28.6,94,29.69,7.0,Calm,Calm,-,N/A,,Scattered Clouds,0,2013-12-29 06:35:00
1:55 AM,29.1,27.7,94,29.69,7.0,ENE,3.5,-,N/A,,Mostly Cloudy,70,2013-12-29 06:55:00
2:14 AM,30.2,28.8,94,29.69,7.0,Calm,Calm,-,N/A,,Overcast,0,2013-12-29 07:14:00
2:35 AM,30.0,28.4,94,29.68,5.0,ENE,4.6,-,N/A,,Overcast,60,2013-12-29 07:35:00
2:55 AM,28.9,27.5,94,29.68,5.0,ENE,3.5,-,N/A,,Overcast,60,2013-12-29 07:55:00
3:14 AM,30.2,28.8,94,29.67,7.0,Calm,Calm,-,N/A,,Overcast,0,2013-12-29 08:14:00
3:35 AM,30.2,28.8,94,29.66,7.0,ENE,5.8,-,N/A,,Overcast,70,2013-12-29 08:35:00
3:54 AM,30.4,28.9,94,29.67,7.0,East,4.6,-,N/A,,Overcast,90,2013-12-29 08:54:00
4:15 AM,31.1,29.7,94,29.69,7.0,ENE,4.6,-,N/A,,Overcast,60,2013-12-29 09:15:00
4:35 AM,31.1,29.3,93,29.68,7.0,ENE,4.6,-,N/A,,Overcast,60,2013-12-29 09:35:00
4:54 AM,31.6,30.0,94,29.67,7.0,East,5.8,-,N/A,,Overcast,100,2013-12-29 09:54:00
5:15 AM,31.1,29.3,93,29.68,7.0,East,3.5,-,N/A,,Overcast,90,2013-12-29 10:15:00
5:35 AM,30.4,28.4,92,29.68,10.0,NE,10.4,-,N/A,,Overcast,50,2013-12-29 10:35:00
5:54 AM,28.4,26.6,93,29.69,10.0,NNE,10.4,-,N/A,,Overcast,30,2013-12-29 10:54:00
6:15 AM,28.4,26.6,93,29.69,7.0,NNE,15.0,20.7,N/A,,Overcast,20,2013-12-29 11:15:00
6:35 AM,27.0,25.0,92,29.71,7.0,North,13.8,26.5,N/A,,Overcast,10,2013-12-29 11:35:00
6:54 AM,22.5,19.4,88,29.72,10.0,NE,13.8,20.7,N/A,,Overcast,50,2013-12-29 11:54:00
7:15 AM,21.7,18.5,87,29.74,10.0,NNE,10.4,16.1,N/A,,Overcast,30,2013-12-29 12:15:00
7:35 AM,21.6,18.9,89,29.76,4.0,NNE,10.4,16.1,N/A,Snow,Light Snow,30,2013-12-29 12:35:00
7:54 AM,20.1,17.6,90,29.77,4.0,North,9.2,-,N/A,Snow,Light Snow,360,2013-12-29 12:54:00
8:15 AM,18.5,16.2,91,29.79,2.5,North,11.5,18.4,N/A,Snow,Light Snow,360,2013-12-29 13:15:00
8:35 AM,18.5,16.0,90,29.80,3.0,North,4.6,-,N/A,,Overcast,360,2013-12-29 13:35:00
8:54 AM,18.5,16.2,91,29.81,4.0,North,8.1,-,N/A,,Overcast,10,2013-12-29 13:54:00
9:15 AM,17.6,15.3,91,29.82,5.0,Calm,Calm,-,N/A,,Overcast,0,2013-12-29 14:15:00
9:35 AM,17.2,14.7,90,29.82,5.0,North,5.8,-,N/A,,Overcast,360,2013-12-29 14:35:00
9:55 AM,17.4,14.9,90,29.83,4.0,Calm,Calm,-,N/A,Snow,Light Snow,0,2013-12-29 14:55:00
10:15 AM,17.1,14.4,89,29.83,5.0,North,3.5,-,N/A,Snow,Light Snow,350,2013-12-29 15:15:00
10:35 AM,17.2,14.7,90,29.83,2.0,Calm,Calm,-,N/A,Snow,Light Snow,0,2013-12-29 15:35:00
10:55 AM,18.0,15.1,88,29.84,1.0,North,5.8,-,N/A,Snow,Light Snow,360,2013-12-29 15:55:00
11:15 AM,17.1,13.1,84,29.84,2.0,North,10.4,16.1,N/A,Snow,Light Snow,350,2013-12-29 16:15:00
11:34 AM,16.7,12.7,84,29.83,2.0,North,5.8,-,N/A,Snow,Light Snow,350,2013-12-29 16:34:00
11:55 AM,16.3,12.2,84,29.84,2.5,NNW,5.8,-,N/A,Snow,Light Snow,340,2013-12-29 16:55:00
12:15 PM,16.2,11.3,81,29.83,3.0,Calm,Calm,-,N/A,Snow,Light Snow,0,2013-12-29 17:15:00
12:34 PM,16.2,11.3,81,29.82,2.5,NNW,5.8,-,N/A,Snow,Light Snow,340,2013-12-29 17:34:00
12:55 PM,16.3,11.8,82,29.82,1.8,NW,3.5,-,N/A,Snow,Light Snow,320,2013-12-29 17:55:00
1:15 PM,16.3,11.8,82,29.82,1.5,NW,11.5,16.1,N/A,Snow,Light Snow,310,2013-12-29 18:15:00
1:34 PM,16.2,11.1,81,29.83,2.5,WNW,11.5,16.1,N/A,Snow,Light Snow,290,2013-12-29 18:34:00
1:55 PM,15.3,9.7,79,29.84,5.0,NW,11.5,19.6,N/A,Snow,Light Snow,320,2013-12-29 18:55:00
2:15 PM,14.9,9.5,79,29.84,5.0,Calm,Calm,-,N/A,Snow,Light Snow,0,2013-12-29 19:15:00
2:34 PM,14.9,9.1,78,29.85,10.0,WNW,8.1,-,N/A,Snow,Light Snow,300,2013-12-29 19:34:00
2:55 PM,14.2,7.7,75,29.85,10.0,NW,11.5,20.7,N/A,,Overcast,320,2013-12-29 19:55:00
3:15 PM,13.8,7.3,75,29.86,10.0,WNW,11.5,23.0,N/A,,Overcast,300,2013-12-29 20:15:00
3:35 PM,13.6,7.0,75,29.86,10.0,WNW,11.5,20.7,N/A,,Overcast,300,2013-12-29 20:35:00
3:55 PM,13.5,7.2,76,29.88,7.0,WNW,11.5,18.4,N/A,Snow,Light Snow,300,2013-12-29 20:55:00
4:15 PM,13.5,6.8,75,29.89,10.0,West,11.5,21.9,N/A,,Overcast,280,2013-12-29 21:15:00
4:35 PM,13.5,7.5,77,29.90,7.0,WNW,6.9,-,N/A,Snow,Light Snow,300,2013-12-29 21:35:00
4:55 PM,13.5,6.8,75,29.91,10.0,NW,15.0,20.7,N/A,,Overcast,310,2013-12-29 21:55:00
5:15 PM,13.5,6.8,75,29.92,10.0,NW,6.9,19.6,N/A,,Overcast,310,2013-12-29 22:15:00
5:35 PM,13.5,6.8,75,29.92,10.0,NW,5.8,-,N/A,,Overcast,320,2013-12-29 22:35:00
5:55 PM,12.4,5.7,75,29.93,7.0,WNW,5.8,-,N/A,,Overcast,290,2013-12-29 22:55:00
6:14 PM,12.4,5.9,75,29.93,10.0,NW,4.6,-,N/A,,Overcast,310,2013-12-29 23:14:00
6:34 PM,11.7,5.9,78,29.94,7.0,Calm,Calm,-,N/A,,Overcast,0,2013-12-29 23:34:00
6:55 PM,11.7,4.8,74,29.95,7.0,NW,8.1,-,N/A,,Overcast,310,2013-12-29 23:55:00
7:15 PM,11.5,5.0,75,29.95,5.0,NW,4.6,-,N/A,,Haze,320,2013-12-30 00:15:00
7:35 PM,11.3,5.4,77,29.96,5.0,WNW,5.8,-,N/A,Snow,Light Snow,290,2013-12-30 00:35:00
7:55 PM,11.5,4.3,73,29.96,10.0,WNW,6.9,-,N/A,,Overcast,300,2013-12-30 00:55:00
8:14 PM,11.1,4.8,76,29.97,4.0,WNW,8.1,-,N/A,Snow,Light Snow,300,2013-12-30 01:14:00
8:35 PM,10.9,4.1,74,29.97,10.0,NW,8.1,-,N/A,,Overcast,320,2013-12-30 01:35:00
8:55 PM,10.9,3.9,73,29.98,7.0,WNW,4.6,-,N/A,,Overcast,290,2013-12-30 01:55:00
9:14 PM,10.9,4.3,75,29.98,10.0,NW,11.5,-,N/A,,Overcast,310,2013-12-30 02:14:00
9:35 PM,10.9,2.3,68,29.99,10.0,WNW,11.5,18.4,N/A,,Overcast,300,2013-12-30 02:35:00
9:55 PM,10.9,2.1,68,29.99,10.0,WNW,15.0,19.6,N/A,,Overcast,300,2013-12-30 02:55:00
10:14 PM,10.2,1.2,67,30.00,10.0,NW,10.4,-,N/A,,Overcast,320,2013-12-30 03:14:00
10:35 PM,10.0,0.3,65,30.01,10.0,NW,9.2,17.3,N/A,,Overcast,310,2013-12-30 03:35:00
10:55 PM,10.0,-0.0,64,30.01,10.0,NW,11.5,20.7,N/A,,Overcast,310,2013-12-30 03:55:00
11:14 PM,8.8,-0.9,65,30.01,10.0,NW,3.5,-,N/A,,Mostly Cloudy,310,2013-12-30 04:14:00
11:35 PM,8.8,-0.2,67,30.02,10.0,WNW,3.5,-,N/A,,Mostly Cloudy,300,2013-12-30 04:35:00
11:55 PM,8.6,0.5,70,30.03,10.0,Calm,Calm,-,N/A,,Scattered Clouds,0,2013-12-30 04:55:00